2024-247E

Last updated on Wed Jan 15 2025 00:02:04 GMT+0000 (Coordinated Universal Time)

1 62381U 24247E 25013.80878633 .00007203 00000+0 34867-3 0 9995 2 62381 44.9961 235.2167 0002134 138.0963 222.0080 15.19198725 3691
UTC large
Height (km)
Speed (km/s)
/
Latitude / Longitude
Inclination (degrees)
Orbital Period (minutes)
Azimuth
Elevation
Range (km)
Doppler Factor

Next 0 passes for location: London (51.5072 / 0.1276)

Sorry there are no passes over London.